Weather History for Pittsfield, MA

Change the Weather History Date:

Tuesday, February 5, 2013

  Actual Average Record
Temperature  
Mean Temperature 21 °F 22 °F  
Max Temperature 28 °F 30 °F 53 °F (1962)
Min Temperature 14 °F 13 °F -9 °F (1946)
Degree Days  
Heating Degree Days 44 43  
Month to date heating degree days 232 219  
Since 1 July heating degree days 4048 4444  
Cooling Degree Days 0 0  
Month to date cooling degree days 0 0  
Year to date cooling degree days 0 0  
Moisture  
Dew Point 12 °F    
Average Humidity 63    
Maximum Humidity 80    
Minimum Humidity 46    
Precipitation  
Precipitation T in 0.08 in 0.76 in (2001)
Month to date precipitation T 0.41  
Year to date precipitation 2.27 3.33  
Sea Level Pressure  
Sea Level Pressure 29.91 in    
Wind  
Wind Speed 1 mph (South)    
Max Wind Speed 8 mph    
Max Gust Speed 10 mph    
Visibility 9 miles    
Events Snow    
T = Trace of Precipitation, MM = Missing Value Source: NWS Daily Summary

Daily Weather History Graph

Daily Weather History Graph

Search for Another Location

Airport:

Trip Planner

Search our weather history database for the weather conditions in past years. The results will help you decide how hot, cold, wet, or windy it might be!

Date:

Astronomy

Feb. 05, 2013 Rise Set
Actual Time 7:02 AM EST 5:12 PM EST
Civil Twilight 6:32 AM EST 5:42 PM EST
Nautical Twilight 5:59 AM EST 6:15 PM EST
Astronomical Twilight 5:26 AM EST 6:48 PM EST
Moon 2:43 AM EST (2/5) 12:25 PM EST (2/5)
Length of Visible Light 11h 09m
Length of Day
10h 10m
Waning Crescent, 27% of the Moon is Illuminated
Feb 5
Waning Crescent
Feb 10
New
Feb 17
First Quarter
Feb 25
Full
Mar 4
Last Quarter

Hourly Weather History & Observations

Time (EST) Temp. Windchill Dew Point Humidity Pressure Visibility Wind Dir Wind Speed Gust Speed Precip Events Conditions
12:54 AM 14.0 °F - 9.0 °F 80% 29.93 in 10.0 mi Calm Calm - N/A   Overcast
1:54 AM 15.1 °F - 8.1 °F 74% 29.93 in 9.0 mi Calm Calm - N/A   Overcast
2:54 AM 14.0 °F 8.2 °F 8.1 °F 77% 29.93 in 10.0 mi WNW 3.5 mph - 0.00 in   Overcast
3:54 AM 14.0 °F - 8.1 °F 77% 29.92 in 10.0 mi Calm Calm - N/A   Overcast
4:54 AM 14.0 °F - 8.1 °F 77% 29.93 in 10.0 mi Calm Calm - N/A   Overcast
5:54 AM 14.0 °F - 8.1 °F 77% 29.94 in 10.0 mi Calm Calm - N/A   Overcast
6:54 AM 15.1 °F 9.4 °F 7.0 °F 70% 29.95 in 10.0 mi WSW 3.5 mph - N/A   Overcast
7:54 AM 15.1 °F - 7.0 °F 70% 29.98 in 10.0 mi Calm Calm - N/A   Overcast
8:54 AM 17.1 °F - 7.0 °F 65% 29.98 in 10.0 mi Calm Calm - N/A   Overcast
9:54 AM 18.0 °F - 8.1 °F 65% 29.99 in 10.0 mi Calm Calm - N/A   Overcast
10:54 AM 21.0 °F - 9.0 °F 60% 29.99 in 10.0 mi Calm Calm - N/A   Overcast
11:54 AM 21.9 °F - 9.0 °F 58% 29.96 in 10.0 mi Calm Calm - N/A   Clear
12:54 PM 24.1 °F - 10.0 °F 55% 29.92 in 10.0 mi Calm Calm - N/A   Clear
1:54 PM 27.0 °F - 10.9 °F 51% 29.91 in 10.0 mi Calm Calm - N/A   Clear
2:54 PM 28.0 °F - 10.9 °F 49% 29.89 in 10.0 mi Calm Calm - N/A   Clear
3:54 PM 27.0 °F - 10.9 °F 51% 29.89 in 10.0 mi Calm Calm - N/A   Clear
4:54 PM 26.1 °F - 10.9 °F 53% 29.88 in 10.0 mi Calm Calm - N/A   Scattered Clouds
5:54 PM 25.0 °F - 14.0 °F 63% 29.88 in 10.0 mi Calm Calm - N/A   Overcast
6:54 PM 25.0 °F 19.3 °F 14.0 °F 63% 29.89 in 10.0 mi SE 4.6 mph - N/A   Overcast
7:21 PM 24.8 °F 20.5 °F 14.0 °F 64% 29.83 in 10.0 mi SSE 3.5 mph - N/A   Overcast
7:40 PM 24.8 °F 17.9 °F 15.8 °F 69% 29.83 in 10.0 mi SSE 5.8 mph - N/A   Overcast
7:54 PM 25.0 °F 17.1 °F 15.1 °F 66% 29.90 in 10.0 mi South 6.9 mph - N/A   Overcast
8:54 PM 24.1 °F - 17.1 °F 75% 29.89 in 5.0 mi Calm Calm - 0.00 in Snow Light Snow
9:54 PM 24.1 °F - 18.0 °F 77% 29.90 in 7.0 mi Calm Calm - 0.00 in   Overcast
10:45 PM 24.8 °F - 17.6 °F 74% 29.83 in 4.0 mi Calm Calm - 0.00 in Snow Light Snow
10:54 PM 24.1 °F - 18.0 °F 77% 29.89 in 4.0 mi Calm Calm - 0.00 in Snow Light Snow
11:14 PM 23.0 °F 17.0 °F 17.6 °F 80% 29.84 in 2.5 mi Variable 4.6 mph - 0.00 in Snow Light Snow
11:29 PM 23.0 °F - 19.4 °F 86% 29.84 in 3.0 mi Calm Calm - 0.00 in Snow Light Snow
11:54 PM 23.0 °F - 19.0 °F 85% 29.89 in 4.0 mi Calm Calm - 0.00 in Snow Light Snow